QPF
0.06 0.08 0.10 0.10 0.10 0.09 0.08 0.09 0.07 0.06 0.06 0.05 0.04 0.04 0.04 0.04 0.04 0.03 0.04 0.03 0.03 0.05 0.07 0.08 0.08 0.09 0.09 0.12 0.14 0.14 0.10 0.07 0.05 0.04 0.04 0.04 0.04 0.04 0.05 0.04 0.04 0.03 0.03
0.06 0.07 0.08 0.09 0.08 0.07 0.08 0.08 0.06 0.06 0.05 0.05 0.05 0.05 0.07 0.06 0.05 0.04 0.04 0.04 0.03 0.03 0.04 0.07 0.08 0.09 0.06 0.07 0.10 0.14 0.16 0.10 0.07 0.06 0.05 0.04 0.04 0.03 0.04 0.04 0.04 0.03 0.03
0.05 0.05 0.06 0.06 0.07 0.08 0.08 0.08 0.07 0.06 0.06 0.06 0.05 0.05 0.06 0.06 0.05 0.05 0.05 0.04 0.03 0.02 0.03 0.04 0.06 0.06 0.06 0.06 0.07 0.09 0.12 0.10 0.09 0.10 0.07 0.05 0.04 0.03 0.03 0.03 0.04 0.04 0.04
0.04 0.05 0.04 0.05 0.07 0.07 0.07 0.08 0.07 0.06 0.06 0.05 0.05 0.04 0.04 0.04 0.04 0.04 0.03 0.02 0.03 0.03 0.03 0.02 0.03 0.04 0.04 0.04 0.06 0.08 0.09 0.09 0.08 0.08 0.07 0.05 0.04 0.03 0.02 0.04 0.05 0.05 0.06
0.03 0.04 0.04 0.06 0.07 0.08 0.07 0.06 0.06 0.05 0.06 0.06 0.04 0.04 0.03 0.03 0.03 0.03 0.02 0.02 0.03 0.03 0.03 0.02 0.02 0.02 0.03 0.03 0.03 0.05 0.07 0.08 0.08 0.08 0.06 0.05 0.06 0.05 0.05 0.06 0.07 0.07 0.07
0.04 0.04 0.04 0.04 0.04 0.05 0.06 0.07 0.08 0.07 0.06 0.05 0.04 0.04 0.04 0.02 0.02 0.02 0.02 0.02 0.03 0.03 0.03 0.02 0.02 0.01 0.01 0.02 0.02 0.03 0.06 0.07 0.07 0.08 0.07 0.07 0.06 0.05 0.06 0.07 0.08 0.08 0.07
0.05 0.06 0.05 0.04 0.04 0.04 0.04 0.05 0.06 0.06 0.05 0.04 0.05 0.05 0.05 0.03 0.02 0.01 0.01 0.02 0.02 0.03 0.02 0.02 0.02 0.02 0.02 0.02 0.02 0.03 0.04 0.06 0.06 0.07 0.07 0.07 0.06 0.06 0.06 0.06 0.07 0.08 0.07
0.07 0.06 0.06 0.05 0.05 0.06 0.06 0.06 0.06 0.06 0.05 0.05 0.06 0.07 0.06 0.04 0.02 0.01 0.01 0.01 0.01 0.02 0.01 0.01 0.01 0.02 0.03 0.05 0.03 0.03 0.04 0.05 0.05 0.06 0.07 0.07 0.06 0.05 0.06 0.06 0.06 0.06 0.05
0.05 0.07 0.07 0.06 0.06 0.06 0.06 0.06 0.06 0.07 0.07 0.06 0.05 0.06 0.07 0.05 0.03 0.02 0.01 0.01 0.01 0.02 0.01 0.01 0.01 0.01 0.02 0.04 0.03 0.03 0.03 0.03 0.04 0.06 0.08 0.08 0.06 0.08 0.08 0.06 0.06 0.06 0.05
0.06 0.06 0.07 0.07 0.07 0.07 0.06 0.06 0.06 0.07 0.07 0.05 0.05 0.04 0.04 0.03 0.03 0.03 0.02 0.01 0.01 0.01 0.01 0.01 0.01 0.01 0.01 0.02 0.02 0.01 0.01 0.01 0.02 0.06 0.09 0.07 0.06 0.08 0.10 0.07 0.06 0.05 0.04
0.04 0.03 0.04 0.06 0.07 0.06 0.06 0.06 0.06 0.06 0.06 0.05 0.05 0.05 0.03 0.03 0.03 0.04 0.04 0.02 0.01 0.01 0.01 0.01 0.01 0.01 0.01 0.01 0.02 0.02 0.01 0.01 0.02 0.05 0.06 0.06 0.07 0.11 0.13 0.08 0.06 0.04 0.04
0.03 0.03 0.03 0.04 0.04 0.05 0.05 0.05 0.04 0.04 0.05 0.05 0.06 0.05 0.04 0.05 0.05 0.05 0.04 0.04 0.03 0.01 0.01 0.02 0.01 0.01 0.00 0.01 0.01 0.01 0.01 0.02 0.01 0.03 0.06 0.05 0.06 0.13 0.11 0.09 0.07 0.05 0.04
0.03 0.03 0.04 0.04 0.04 0.03 0.04 0.05 0.05 0.04 0.04 0.05 0.06 0.05 0.04 0.05 0.04 0.04 0.04 0.03 0.02 0.02 0.02 0.02 0.02 0.02 0.01 0.01 0.01 0.01 0.01 0.02 0.01 0.04 0.08 0.05 0.05 0.10 0.09 0.08 0.07 0.06 0.06
0.03 0.04 0.04 0.03 0.03 0.03 0.04 0.04 0.04 0.04 0.04 0.05 0.05 0.05 0.04 0.04 0.03 0.03 0.03 0.03 0.03 0.03 0.03 0.03 0.03 0.02 0.01 0.02 0.02 0.01 0.01 0.02 0.02 0.04 0.07 0.06 0.07 0.07 0.07 0.06 0.04 0.03 0.03
0.04 0.05 0.04 0.03 0.02 0.03 0.03 0.03 0.03 0.03 0.04 0.04 0.04 0.05 0.05 0.04 0.04 0.03 0.02 0.02 0.04 0.05 0.05 0.04 0.03 0.03 0.02 0.02 0.03 0.02 0.02 0.03 0.03 0.03 0.04 0.04 0.05 0.04 0.04 0.04 0.03 0.02 0.01
0.04 0.04 0.03 0.03 0.02 0.02 0.02 0.02 0.02 0.03 0.03 0.03 0.03 0.04 0.05 0.05 0.05 0.04 0.04 0.04 0.04 0.05 0.05 0.04 0.03 0.02 0.03 0.03 0.04 0.03 0.04 0.07 0.05 0.03 0.02 0.03 0.03 0.03 0.02 0.02 0.02 0.01 0.01
0.03 0.02 0.02 0.02 0.01 0.01 0.01 0.01 0.01 0.01 0.02 0.01 0.01 0.02 0.03 0.04 0.05 0.04 0.05 0.04 0.04 0.04 0.04 0.04 0.03 0.03 0.03 0.04 0.05 0.07 0.08 0.12 0.08 0.04 0.02 0.03 0.03 0.02 0.02 0.02 0.01 0.02 0.01
0.02 0.02 0.01 0.01 0.00 0.00 0.00 0.01 0.01 0.01 0.01 0.01 0.01 0.01 0.02 0.03 0.04 0.04 0.04 0.03 0.03 0.04 0.04 0.04 0.03 0.04 0.03 0.04 0.04 0.05 0.09 0.13 0.10 0.06 0.04 0.03 0.02 0.02 0.01 0.01 0.01 0.02 0.01
0.01 0.01 0.01 0.01 0.00 0.00 0.00 0.00 0.01 0.00 0.00 0.00 0.01 0.01 0.01 0.02 0.04 0.05 0.05 0.04 0.03 0.03 0.04 0.04 0.03 0.06 0.04 0.03 0.03 0.03 0.05 0.07 0.09 0.10 0.07 0.05 0.02 0.02 0.01 0.01 0.01 0.01 0.03
0.01 0.01 0.01 0.01 0.01 0.00 0.00 0.00 0.00 0.00 0.00 0.00 0.01 0.01 0.01 0.02 0.02 0.04 0.05 0.06 0.05 0.05 0.04 0.04 0.04 0.06 0.06 0.04 0.03 0.03 0.04 0.05 0.07 0.09 0.08 0.05 0.03 0.02 0.01 0.01 0.01 0.02 0.04
0.01 0.01 0.01 0.01 0.01 0.00 0.00 0.00 0.00 0.00 0.01 0.01 0.01 0.01 0.01 0.01 0.01 0.02 0.02 0.04 0.05 0.06 0.05 0.04 0.05 0.06 0.05 0.04 0.03 0.02 0.03 0.05 0.05 0.06 0.07 0.05 0.03 0.02 0.01 0.01 0.01 0.03 0.06
0.01 0.01 0.01 0.01 0.01 0.00 0.00 0.01 0.01 0.01 0.01 0.01 0.01 0.01 0.01 0.02 0.01 0.01 0.01 0.02 0.03 0.04 0.05 0.05 0.04 0.04 0.05 0.04 0.03 0.03 0.03 0.04 0.05 0.06 0.06 0.05 0.03 0.02 0.01 0.01 0.01 0.03 0.08
0.01 0.01 0.01 0.01 0.01 0.00 0.01 0.01 0.01 0.01 0.01 0.02 0.02 0.02 0.02 0.02 0.02 0.02 0.01 0.02 0.02 0.02 0.03 0.04 0.04 0.04 0.05 0.05 0.05 0.05 0.05 0.04 0.04 0.05 0.05 0.04 0.03 0.02 0.01 0.01 0.01 0.03 0.06
0.01 0.01 0.01 0.01 0.01 0.01 0.01 0.01 0.01 0.01 0.01 0.01 0.02 0.02 0.03 0.02 0.02 0.03 0.03 0.02 0.03 0.02 0.02 0.02 0.04 0.06 0.06 0.07 0.06 0.06 0.06 0.07 0.05 0.04 0.05 0.05 0.03 0.03 0.02 0.01 0.01 0.03 0.05
0.01 0.01 0.01 0.01 0.01 0.01 0.01 0.01 0.01 0.00 0.01 0.01 0.01 0.01 0.02 0.02 0.02 0.02 0.03 0.03 0.03 0.03 0.02 0.02 0.02 0.03 0.03 0.03 0.04 0.05 0.07 0.07 0.06 0.05 0.04 0.05 0.04 0.04 0.04 0.03 0.02 0.02 0.04
0.03 0.03 0.02 0.01 0.01 0.02 0.01 0.01 0.01 0.01 0.02 0.02 0.02 0.02 0.02 0.02 0.02 0.02 0.03 0.04 0.03 0.04 0.03 0.03 0.02 0.02 0.03 0.03 0.03 0.04 0.07 0.08 0.07 0.06 0.03 0.04 0.04 0.04 0.03 0.03 0.03 0.02 0.03
MSLP
1013.33 1013.61 1013.86 1014.06 1014.20 1014.29 1014.33 1014.33 1014.30 1014.25 1014.19 1014.11 1014.03 1013.95 1013.89 1013.86 1013.89 1013.98 1014.13 1014.33 1014.58 1014.86 1015.13 1015.39 1015.63 1015.85 1016.06 1016.27 1016.50 1016.75 1017.03 1017.33 1017.65 1017.96 1018.26 1018.53 1018.77 1018.96 1019.11 1019.21 1019.25 1019.23 1019.16
1013.16 1013.43 1013.67 1013.88 1014.04 1014.15 1014.21 1014.22 1014.20 1014.16 1014.09 1014.02 1013.94 1013.86 1013.79 1013.74 1013.73 1013.77 1013.85 1013.98 1014.16 1014.36 1014.59 1014.82 1015.06 1015.29 1015.53 1015.78 1016.05 1016.34 1016.66 1016.99 1017.33 1017.67 1017.99 1018.29 1018.56 1018.79 1018.97 1019.09 1019.16 1019.17 1019.12
1013.10 1013.34 1013.57 1013.79 1013.97 1014.10 1014.18 1014.22 1014.23 1014.20 1014.15 1014.08 1014.00 1013.91 1013.81 1013.72 1013.65 1013.61 1013.61 1013.66 1013.75 1013.89 1014.06 1014.26 1014.49 1014.73 1014.99 1015.27 1015.57 1015.89 1016.22 1016.57 1016.92 1017.27 1017.61 1017.94 1018.23 1018.50 1018.72 1018.89 1019.01 1019.06 1019.05
1013.13 1013.33 1013.55 1013.76 1013.95 1014.10 1014.22 1014.29 1014.32 1014.32 1014.30 1014.24 1014.16 1014.05 1013.92 1013.78 1013.64 1013.52 1013.43 1013.38 1013.39 1013.45 1013.57 1013.74 1013.94 1014.19 1014.46 1014.75 1015.06 1015.38 1015.72 1016.07 1016.43 1016.78 1017.14 1017.48 1017.81 1018.11 1018.38 1018.61 1018.79 1018.90 1018.96
1013.21 1013.37 1013.57 1013.77 1013.96 1014.13 1014.26 1014.36 1014.43 1014.46 1014.45 1014.41 1014.33 1014.20 1014.04 1013.86 1013.66 1013.46 1013.29 1013.16 1013.09 1013.08 1013.15 1013.27 1013.45 1013.68 1013.93 1014.22 1014.53 1014.84 1015.18 1015.52 1015.87 1016.23 1016.60 1016.96 1017.32 1017.66 1017.98 1018.27 1018.52 1018.71 1018.84
1013.31 1013.45 1013.62 1013.80 1013.98 1014.15 1014.29 1014.41 1014.50 1014.55 1014.56 1014.53 1014.46 1014.33 1014.15 1013.93 1013.68 1013.43 1013.19 1013.00 1012.85 1012.79 1012.79 1012.87 1013.01 1013.20 1013.44 1013.71 1013.99 1014.30 1014.62 1014.95 1015.30 1015.67 1016.04 1016.43 1016.81 1017.20 1017.57 1017.92 1018.23 1018.49 1018.70
1013.40 1013.53 1013.68 1013.84 1014.01 1014.16 1014.30 1014.41 1014.50 1014.57 1014.60 1014.58 1014.51 1014.38 1014.20 1013.96 1013.69 1013.40 1013.12 1012.87 1012.68 1012.56 1012.51 1012.54 1012.63 1012.78 1012.98 1013.21 1013.48 1013.76 1014.07 1014.40 1014.76 1015.13 1015.52 1015.93 1016.35 1016.77 1017.18 1017.58 1017.94 1018.27 1018.55
1013.49 1013.61 1013.76 1013.90 1014.04 1014.16 1014.28 1014.38 1014.46 1014.51 1014.54 1014.53 1014.47 1014.36 1014.18 1013.95 1013.67 1013.37 1013.07 1012.79 1012.56 1012.39 1012.29 1012.26 1012.30 1012.40 1012.56 1012.75 1012.99 1013.25 1013.56 1013.89 1014.26 1014.65 1015.07 1015.50 1015.95 1016.40 1016.84 1017.27 1017.68 1018.05 1018.38
1013.56 1013.71 1013.84 1013.97 1014.08 1014.17 1014.25 1014.31 1014.36 1014.40 1014.42 1014.41 1014.36 1014.25 1014.09 1013.88 1013.62 1013.32 1013.02 1012.73 1012.48 1012.27 1012.12 1012.03 1012.01 1012.06 1012.16 1012.31 1012.52 1012.77 1013.07 1013.42 1013.80 1014.22 1014.67 1015.13 1015.61 1016.08 1016.55 1017.00 1017.43 1017.84 1018.21
1013.64 1013.80 1013.94 1014.05 1014.13 1014.18 1014.21 1014.23 1014.24 1014.25 1014.24 1014.22 1014.18 1014.09 1013.95 1013.76 1013.53 1013.26 1012.97 1012.68 1012.40 1012.16 1011.97 1011.83 1011.75 1011.73 1011.77 1011.88 1012.06 1012.30 1012.60 1012.96 1013.38 1013.83 1014.31 1014.81 1015.31 1015.81 1016.29 1016.76 1017.21 1017.63 1018.04
1013.70 1013.87 1014.00 1014.10 1014.15 1014.17 1014.15 1014.12 1014.09 1014.06 1014.03 1014.00 1013.95 1013.87 1013.76 1013.60 1013.40 1013.15 1012.88 1012.60 1012.32 1012.05 1011.82 1011.62 1011.48 1011.40 1011.39 1011.45 1011.59 1011.82 1012.12 1012.50 1012.95 1013.44 1013.95 1014.48 1015.02 1015.53 1016.04 1016.52 1016.99 1017.44 1017.86
1013.71 1013.89 1014.02 1014.10 1014.12 1014.10 1014.05 1013.98 1013.91 1013.84 1013.79 1013.73 1013.68 1013.61 1013.51 1013.38 1013.20 1012.99 1012.75 1012.47 1012.19 1011.91 1011.64 1011.40 1011.19 1011.05 1010.98 1011.00 1011.11 1011.32 1011.63 1012.02 1012.49 1013.01 1013.57 1014.13 1014.70 1015.25 1015.78 1016.28 1016.77 1017.24 1017.70
1013.64 1013.81 1013.93 1014.00 1014.00 1013.96 1013.88 1013.78 1013.68 1013.58 1013.50 1013.43 1013.37 1013.29 1013.21 1013.09 1012.94 1012.75 1012.53 1012.28 1012.00 1011.70 1011.41 1011.13 1010.89 1010.70 1010.58 1010.55 1010.63 1010.82 1011.12 1011.53 1012.02 1012.57 1013.16 1013.76 1014.36 1014.94 1015.50 1016.04 1016.55 1017.06 1017.55
1013.46 1013.62 1013.73 1013.78 1013.77 1013.72 1013.63 1013.51 1013.39 1013.28 1013.18 1013.09 1013.01 1012.93 1012.84 1012.73 1012.60 1012.43 1012.23 1011.99 1011.72 1011.44 1011.14 1010.84 1010.57 1010.35 1010.20 1010.14 1010.20 1010.37 1010.67 1011.08 1011.58 1012.16 1012.77 1013.40 1014.03 1014.65 1015.24 1015.81 1016.36 1016.90 1017.42
1013.18 1013.31 1013.41 1013.46 1013.45 1013.40 1013.31 1013.20 1013.08 1012.95 1012.84 1012.73 1012.63 1012.53 1012.42 1012.31 1012.17 1012.02 1011.83 1011.62 1011.37 1011.11 1010.82 1010.54 1010.27 1010.04 1009.89 1009.82 1009.87 1010.04 1010.33 1010.74 1011.26 1011.84 1012.47 1013.12 1013.78 1014.41 1015.03 1015.63 1016.20 1016.77 1017.33
1012.80 1012.93 1013.03 1013.08 1013.08 1013.04 1012.97 1012.87 1012.75 1012.63 1012.49 1012.36 1012.23 1012.10 1011.97 1011.84 1011.69 1011.54 1011.37 1011.18 1010.97 1010.74 1010.50 1010.25 1010.02 1009.83 1009.70 1009.65 1009.71 1009.89 1010.19 1010.60 1011.12 1011.70 1012.34 1012.99 1013.65 1014.29 1014.92 1015.53 1016.12 1016.70 1017.27
1012.41 1012.54 1012.64 1012.71 1012.73 1012.72 1012.67 1012.58 1012.47 1012.34 1012.19 1012.03 1011.86 1011.69 1011.52 1011.35 1011.18 1011.02 1010.87 1010.71 1010.55 1010.37 1010.20 1010.02 1009.86 1009.73 1009.66 1009.67 1009.77 1009.97 1010.29 1010.71 1011.23 1011.80 1012.42 1013.06 1013.70 1014.33 1014.94 1015.53 1016.11 1016.68 1017.25
1012.06 1012.21 1012.33 1012.42 1012.47 1012.48 1012.44 1012.37 1012.27 1012.12 1011.95 1011.75 1011.54 1011.31 1011.09 1010.88 1010.68 1010.52 1010.37 1010.24 1010.13 1010.04 1009.95 1009.86 1009.80 1009.77 1009.79 1009.87 1010.04 1010.29 1010.64 1011.07 1011.58 1012.14 1012.72 1013.32 1013.92 1014.51 1015.08 1015.63 1016.18 1016.72 1017.26
1011.82 1012.00 1012.15 1012.26 1012.32 1012.35 1012.33 1012.26 1012.14 1011.98 1011.77 1011.53 1011.27 1010.99 1010.71 1010.46 1010.24 1010.05 1009.92 1009.83 1009.78 1009.76 1009.76 1009.79 1009.84 1009.93 1010.05 1010.23 1010.47 1010.78 1011.17 1011.61 1012.11 1012.64 1013.19 1013.73 1014.27 1014.79 1015.29 1015.79 1016.28 1016.78 1017.28
1011.71 1011.92 1012.09 1012.22 1012.30 1012.32 1012.30 1012.22 1012.08 1011.89 1011.65 1011.36 1011.05 1010.72 1010.40 1010.11 1009.86 1009.68 1009.56 1009.50 1009.51 1009.57 1009.67 1009.80 1009.96 1010.16 1010.39 1010.67 1010.99 1011.36 1011.78 1012.24 1012.72 1013.22 1013.71 1014.19 1014.65 1015.09 1015.52 1015.95 1016.38 1016.82 1017.28
1011.69 1011.94 1012.13 1012.26 1012.33 1012.35 1012.31 1012.20 1012.04 1011.82 1011.54 1011.22 1010.87 1010.51 1010.16 1009.85 1009.59 1009.41 1009.31 1009.29 1009.35 1009.48 1009.65 1009.88 1010.13 1010.42 1010.75 1011.10 1011.48 1011.90 1012.34 1012.80 1013.27 1013.72 1014.16 1014.57 1014.96 1015.33 1015.68 1016.04 1016.42 1016.82 1017.24
1011.71 1011.98 1012.18 1012.30 1012.36 1012.35 1012.28 1012.15 1011.96 1011.72 1011.42 1011.08 1010.71 1010.34 1009.99 1009.68 1009.44 1009.27 1009.20 1009.22 1009.32 1009.49 1009.72 1010.01 1010.33 1010.68 1011.05 1011.45 1011.88 1012.31 1012.76 1013.21 1013.64 1014.05 1014.44 1014.79 1015.10 1015.41 1015.70 1016.01 1016.35 1016.72 1017.14
1011.68 1011.96 1012.15 1012.26 1012.29 1012.25 1012.16 1012.00 1011.80 1011.55 1011.25 1010.92 1010.57 1010.23 1009.90 1009.63 1009.41 1009.28 1009.24 1009.29 1009.42 1009.62 1009.88 1010.19 1010.53 1010.89 1011.28 1011.68 1012.11 1012.53 1012.96 1013.38 1013.77 1014.14 1014.47 1014.76 1015.03 1015.29 1015.55 1015.83 1016.16 1016.53 1016.95
1011.53 1011.81 1011.98 1012.07 1012.08 1012.02 1011.92 1011.76 1011.56 1011.33 1011.06 1010.77 1010.47 1010.18 1009.92 1009.70 1009.53 1009.45 1009.45 1009.52 1009.67 1009.87 1010.12 1010.41 1010.73 1011.07 1011.42 1011.79 1012.17 1012.55 1012.93 1013.30 1013.65 1013.97 1014.25 1014.51 1014.75 1014.98 1015.22 1015.50 1015.83 1016.22 1016.67
1011.23 1011.50 1011.66 1011.73 1011.73 1011.68 1011.58 1011.44 1011.28 1011.09 1010.89 1010.67 1010.44 1010.23 1010.04 1009.89 1009.80 1009.76 1009.79 1009.88 1010.03 1010.22 1010.44 1010.69 1010.95 1011.22 1011.51 1011.80 1012.10 1012.42 1012.73 1013.04 1013.33 1013.60 1013.86 1014.08 1014.30 1014.53 1014.78 1015.07 1015.41 1015.82 1016.29
1010.79 1011.05 1011.22 1011.29 1011.31 1011.28 1011.22 1011.13 1011.03 1010.92 1010.79 1010.65 1010.52 1010.39 1010.28 1010.20 1010.16 1010.17 1010.23 1010.33 1010.47 1010.63 1010.80 1010.99 1011.17 1011.36 1011.56 1011.76 1011.98 1012.21 1012.45 1012.69 1012.93 1013.16 1013.38 1013.59 1013.80 1014.02 1014.28 1014.58 1014.94 1015.36 1015.84
Thickness
5739 5738 5736 5735 5736 5736 5735 5735 5736 5735 5734 5734 5734 5733 5733 5733 5732 5731 5728 5724 5723 5722 5721 5720 5719 5719 5717 5716 5716 5715 5714 5713 5712 5711 5710 5709 5709 5708 5707 5706 5705 5705 5704
5737 5735 5734 5733 5734 5733 5734 5733 5733 5732 5732 5732 5731 5730 5729 5729 5728 5728 5727 5724 5721 5720 5719 5718 5717 5716 5715 5714 5714 5713 5712 5711 5710 5709 5708 5707 5706 5705 5705 5704 5703 5702 5701
5734 5734 5734 5732 5732 5731 5730 5729 5730 5730 5729 5729 5728 5727 5726 5726 5725 5724 5724 5724 5722 5719 5717 5716 5715 5714 5713 5712 5712 5711 5710 5709 5708 5707 5705 5705 5704 5703 5702 5701 5700 5699 5698
5731 5731 5732 5731 5729 5729 5729 5728 5728 5728 5726 5726 5725 5725 5725 5723 5722 5722 5722 5721 5721 5720 5716 5714 5712 5711 5711 5710 5709 5709 5708 5707 5706 5704 5703 5702 5701 5700 5699 5698 5697 5696 5695
5730 5730 5730 5729 5727 5728 5727 5727 5727 5726 5723 5723 5722 5721 5722 5722 5720 5720 5719 5718 5717 5716 5716 5712 5710 5709 5708 5708 5707 5706 5706 5705 5704 5702 5700 5699 5698 5697 5696 5695 5694 5693 5692
5728 5728 5728 5726 5727 5726 5724 5723 5721 5721 5721 5720 5721 5719 5719 5719 5718 5718 5717 5716 5715 5714 5714 5712 5710 5708 5706 5705 5705 5704 5703 5702 5701 5699 5698 5697 5696 5695 5694 5693 5692 5690 5689
5726 5725 5726 5724 5724 5723 5721 5721 5720 5718 5717 5718 5715 5713 5715 5715 5714 5714 5714 5714 5713 5712 5711 5709 5709 5708 5706 5703 5703 5702 5700 5700 5698 5697 5695 5694 5693 5692 5691 5690 5689 5688 5686
5724 5724 5723 5723 5722 5720 5718 5717 5716 5716 5716 5715 5713 5710 5708 5709 5709 5712 5711 5710 5710 5710 5709 5707 5706 5705 5705 5704 5702 5700 5698 5697 5696 5694 5693 5692 5690 5689 5688 5687 5686 5684 5683
5722 5722 5721 5721 5720 5719 5718 5715 5714 5713 5712 5712 5713 5710 5705 5705 5706 5707 5706 5707 5706 5706 5706 5705 5703 5702 5701 5701 5700 5697 5696 5694 5693 5692 5690 5689 5687 5686 5685 5684 5682 5681 5679
5720 5719 5719 5718 5718 5718 5716 5715 5715 5713 5710 5709 5708 5708 5708 5708 5702 5701 5703 5704 5704 5703 5703 5704 5703 5701 5699 5698 5696 5695 5693 5692 5690 5689 5688 5686 5685 5683 5682 5680 5679 5677 5676
5718 5718 5717 5716 5715 5715 5714 5713 5711 5710 5709 5708 5707 5706 5705 5703 5703 5699 5696 5698 5700 5702 5702 5701 5701 5700 5698 5697 5696 5694 5691 5689 5688 5686 5685 5684 5682 5681 5679 5678 5676 5674 5673
5716 5716 5715 5713 5713 5713 5711 5709 5708 5707 5707 5705 5705 5704 5703 5701 5700 5699 5696 5695 5695 5699 5700 5699 5699 5698 5697 5696 5695 5692 5689 5687 5685 5684 5683 5681 5680 5678 5677 5675 5674 5671 5670
5715 5713 5714 5711 5710 5709 5708 5707 5705 5705 5704 5702 5701 5702 5702 5702 5701 5699 5696 5695 5694 5697 5696 5697 5697 5696 5696 5695 5693 5689 5687 5685 5683 5682 5680 5679 5677 5675 5674 5672 5670 5668 5666
5715 5713 5711 5710 5708 5708 5707 5705 5705 5703 5702 5701 5700 5699 5698 5699 5699 5698 5696 5693 5691 5693 5694 5694 5696 5695 5694 5692 5691 5687 5687 5684 5682 5680 5678 5676 5674 5673 5671 5669 5667 5665 5663
5714 5711 5709 5708 5706 5705 5704 5703 5703 5701 5700 5699 5698 5697 5696 5697 5697 5697 5696 5694 5690 5686 5688 5691 5692 5692 5690 5689 5687 5686 5686 5683 5681 5678 5676 5674 5672 5670 5668 5666 5664 5662 5660
5711 5709 5707 5705 5704 5703 5702 5701 5700 5700 5698 5696 5695 5694 5693 5695 5694 5693 5692 5691 5690 5687 5686 5690 5689 5690 5687 5687 5684 5683 5683 5681 5679 5677 5674 5672 5670 5668 5666 5663 5661 5659 5657
5707 5706 5705 5704 5702 5701 5701 5699 5699 5697 5695 5694 5693 5692 5690 5691 5691 5690 5690 5689 5687 5686 5682 5685 5687 5687 5683 5681 5682 5680 5680 5679 5679 5675 5672 5670 5667 5665 5663 5661 5658 5656 5654
5706 5705 5703 5702 5701 5700 5698 5697 5697 5696 5694 5692 5691 5689 5688 5688 5686 5687 5686 5686 5685 5683 5681 5679 5681 5682 5680 5679 5678 5677 5679 5679 5677 5674 5671 5668 5665 5663 5660 5658 5656 5654 5652
5703 5703 5701 5700 5699 5698 5697 5696 5695 5694 5693 5691 5689 5687 5686 5685 5683 5684 5683 5683 5683 5682 5679 5678 5678 5679 5678 5678 5675 5676 5677 5675 5675 5673 5669 5666 5663 5661 5658 5656 5654 5652 5650
5700 5699 5699 5698 5697 5697 5696 5695 5693 5691 5690 5688 5687 5686 5684 5683 5682 5681 5680 5679 5679 5678 5677 5676 5676 5676 5674 5675 5673 5673 5673 5673 5673 5673 5669 5666 5662 5659 5657 5654 5652 5650 5648
5698 5697 5697 5696 5695 5695 5694 5692 5690 5689 5686 5685 5685 5684 5683 5680 5679 5677 5679 5678 5676 5675 5675 5674 5673 5673 5672 5670 5670 5671 5670 5669 5669 5669 5667 5665 5662 5660 5657 5653 5651 5648 5646
5695 5695 5694 5694 5693 5693 5689 5686 5685 5686 5684 5683 5682 5681 5680 5678 5675 5672 5671 5671 5670 5671 5672 5671 5671 5670 5667 5668 5668 5667 5666 5664 5663 5666 5663 5662 5661 5659 5657 5655 5651 5648 5645
5691 5691 5691 5691 5690 5688 5684 5681 5679 5681 5681 5681 5679 5678 5679 5679 5674 5674 5670 5667 5666 5665 5664 5666 5668 5667 5666 5666 5664 5663 5662 5661 5660 5662 5658 5658 5658 5656 5655 5653 5649 5646 5643
5688 5688 5687 5688 5687 5686 5681 5678 5676 5677 5679 5678 5677 5676 5674 5674 5673 5670 5670 5669 5668 5667 5664 5663 5664 5665 5664 5663 5660 5659 5658 5657 5657 5658 5656 5654 5655 5654 5654 5651 5647 5644 5641
5684 5685 5685 5685 5684 5683 5678 5675 5671 5676 5676 5675 5675 5674 5672 5671 5667 5664 5665 5665 5665 5665 5663 5661 5660 5659 5658 5657 5656 5655 5655 5653 5653 5655 5655 5652 5652 5652 5651 5649 5646 5642 5638
5682 5683 5683 5682 5682 5681 5676 5672 5668 5675 5675 5674 5672 5671 5667 5666 5663 5660 5662 5662 5661 5662 5662 5660 5658 5657 5656 5656 5653 5652 5653 5652 5651 5651 5652 5649 5648 5647 5646 5648 5645 5641 5636